TimeCET,TemperatureF,Dew PointF,Humidity,Sea Level PressureIn,VisibilityMPH,Wind Direction,Wind SpeedMPH,Gust SpeedMPH,PrecipitationIn,Events,Conditions,WindDirDegrees,DateUTC
12:25 AM,42.8,42.8,100,30.27,2.2,SW,13.8,-,N/A,,Light Drizzle,220,2013-01-07 23:25:00
12:55 AM,42.8,42.8,100,30.27,2.5,SW,13.8,-,N/A,,Light Drizzle,220,2013-01-07 23:55:00
1:00 AM,43,42,95,30.27,2,SW,13.4,,,,Mist,220,2013-01-08 00:00:00
1:25 AM,42.8,42.8,100,30.24,2.8,SW,13.8,-,N/A,,Overcast,220,2013-01-08 00:25:00
1:55 AM,42.8,42.8,100,30.24,3.1,SSW,13.8,-,N/A,,Overcast,210,2013-01-08 00:55:00
2:25 AM,42.8,42.8,100,30.24,3.1,SSW,12.7,-,N/A,,Overcast,210,2013-01-08 01:25:00
2:55 AM,42.8,42.8,100,30.24,3.1,SSW,12.7,-,N/A,,Overcast,210,2013-01-08 01:55:00
3:25 AM,42.8,42.8,100,30.24,3.7,SSW,12.7,-,N/A,,Mostly Cloudy,210,2013-01-08 02:25:00
3:55 AM,42.8,41.0,93,30.24,3.7,SSW,12.7,-,N/A,,Overcast,210,2013-01-08 02:55:00
4:00 AM,43,42,93,30.26,3,SSW,13.4,,,,Mist,210,2013-01-08 03:00:00
4:25 AM,42.8,42.8,100,30.24,3.7,SSW,11.5,-,N/A,,Overcast,210,2013-01-08 03:25:00
4:55 AM,42.8,42.8,100,30.24,3.7,SSW,11.5,-,N/A,,Overcast,210,2013-01-08 03:55:00
5:25 AM,42.8,42.8,100,30.24,3.7,SSW,11.5,-,N/A,,Overcast,210,2013-01-08 04:25:00
5:55 AM,44.6,42.8,93,30.21,3.7,SW,11.5,-,N/A,,Mostly Cloudy,220,2013-01-08 04:55:00
6:25 AM,44.6,42.8,93,30.21,3.7,SW,10.4,-,N/A,,Overcast,220,2013-01-08 05:25:00
6:55 AM,44.6,42.8,93,30.21,3.7,SW,11.5,-,N/A,,Overcast,220,2013-01-08 05:55:00
7:00 AM,44,43,93,30.24,3,SSW,11.2,,,,Mist,210,2013-01-08 06:00:00
7:25 AM,44.6,42.8,93,30.21,3.7,SSW,11.5,-,N/A,,Mostly Cloudy,210,2013-01-08 06:25:00
7:55 AM,44.6,42.8,93,30.21,3.7,SSW,10.4,-,N/A,,Overcast,210,2013-01-08 06:55:00
8:25 AM,44.6,42.8,93,30.21,3.7,SSW,10.4,-,N/A,,Overcast,210,2013-01-08 07:25:00
8:55 AM,44.6,44.6,100,30.21,3.7,SSW,11.5,-,N/A,,Overcast,210,2013-01-08 07:55:00
9:25 AM,44.6,42.8,93,30.24,3.1,SSW,10.4,-,N/A,,Overcast,210,2013-01-08 08:25:00
9:55 AM,44.6,42.8,93,30.24,3.1,SSW,11.5,-,N/A,,Mostly Cloudy,210,2013-01-08 08:55:00
10:00 AM,45,44,93,30.25,3,SSW,11.2,,,,Mist,210,2013-01-08 09:00:00
10:25 AM,46.4,44.6,93,30.24,3.1,SW,11.5,-,N/A,,Overcast,220,2013-01-08 09:25:00
10:55 AM,46.4,44.6,93,30.24,3.7,SW,11.5,-,N/A,,Overcast,220,2013-01-08 09:55:00
11:25 AM,46.4,44.6,93,30.24,4.3,SW,10.4,-,N/A,,Mostly Cloudy,220,2013-01-08 10:25:00
11:55 AM,48.2,44.6,87,30.24,5.0,SW,10.4,-,N/A,,Mostly Cloudy,220,2013-01-08 10:55:00
12:25 PM,48.2,46.4,93,30.24,6.2,SW,11.5,-,N/A,,Mostly Cloudy,230,2013-01-08 11:25:00
12:55 PM,48.2,44.6,87,30.24,5.6,WSW,13.8,-,N/A,,Mostly Cloudy,240,2013-01-08 11:55:00
1:00 PM,48,45,86,30.25,7,SW,13.4,,,,Partly Cloudy,230,2013-01-08 12:00:00
1:25 PM,48.2,44.6,87,30.24,5.6,WSW,13.8,-,N/A,,Mostly Cloudy,240,2013-01-08 12:25:00
1:55 PM,48.2,44.6,87,30.21,5.6,WSW,15.0,-,N/A,,Mostly Cloudy,240,2013-01-08 12:55:00
2:25 PM,48.2,44.6,87,30.21,5.6,WSW,13.8,-,N/A,,Mostly Cloudy,240,2013-01-08 13:25:00
2:55 PM,48.2,44.6,87,30.21,6.2,WSW,13.8,-,N/A,,Mostly Cloudy,240,2013-01-08 13:55:00
3:25 PM,48.2,44.6,87,30.21,6.2,WSW,13.8,-,N/A,,Overcast,240,2013-01-08 14:25:00
3:55 PM,48.2,44.6,87,30.21,6.2,WSW,15.0,-,N/A,,Overcast,240,2013-01-08 14:55:00
4:00 PM,48,45,86,30.23,6,WSW,13.4,,,,Overcast,240,2013-01-08 15:00:00
4:25 PM,48.2,46.4,93,30.21,4.3,WSW,13.8,-,N/A,,Overcast,240,2013-01-08 15:25:00
4:55 PM,48.2,44.6,87,30.21,5.0,WSW,15.0,-,N/A,,Overcast,250,2013-01-08 15:55:00
5:25 PM,48.2,44.6,87,30.21,5.6,WSW,13.8,-,N/A,,Overcast,250,2013-01-08 16:25:00
5:55 PM,48.2,44.6,87,30.21,5.0,WSW,12.7,-,N/A,,Mostly Cloudy,240,2013-01-08 16:55:00
6:25 PM,48.2,44.6,87,30.21,5.6,WSW,11.5,-,N/A,,Mostly Cloudy,240,2013-01-08 17:25:00
6:55 PM,48.2,44.6,87,30.21,5.6,WSW,13.8,-,N/A,,Mostly Cloudy,240,2013-01-08 17:55:00
7:00 PM,47,45,90,30.24,4,WSW,13.4,,,,Mist,240,2013-01-08 18:00:00
7:25 PM,48.2,44.6,87,30.21,3.7,WSW,12.7,-,N/A,,Mostly Cloudy,240,2013-01-08 18:25:00
7:55 PM,46.4,44.6,93,30.21,3.1,SW,13.8,-,N/A,,Mostly Cloudy,230,2013-01-08 18:55:00
8:25 PM,46.4,44.6,93,30.21,2.8,SW,12.7,-,N/A,,Overcast,230,2013-01-08 19:25:00
8:55 PM,46.4,46.4,100,30.21,1.6,SW,12.7,-,N/A,,Light Drizzle,230,2013-01-08 19:55:00
9:25 PM,46.4,46.4,100,30.21,1.4,SW,11.5,-,N/A,,Light Drizzle,220,2013-01-08 20:25:00
9:55 PM,46.4,44.6,93,30.21,1.4,SSW,11.5,-,N/A,,Light Drizzle,210,2013-01-08 20:55:00
10:00 PM,46,45,95,30.23,1,SSW,11.2,,,Rain,Drizzle,210,2013-01-08 21:00:00
10:25 PM,46.4,44.6,93,30.21,3.1,SSW,10.4,-,N/A,,Overcast,200,2013-01-08 21:25:00
10:55 PM,46.4,44.6,93,30.18,3.1,SSW,11.5,-,N/A,,Overcast,210,2013-01-08 21:55:00
11:25 PM,46.4,44.6,93,30.18,1.6,SSW,11.5,-,N/A,,Light Drizzle,210,2013-01-08 22:25:00
11:55 PM,44.6,44.6,100,30.18,1.3,SSW,10.4,-,N/A,,Light Drizzle,210,2013-01-08 22:55:00